Weather History for Taos, NM

Change the Weather History Date:

Saturday, March 29, 2014

  Actual Average Record
Temperature  
Mean Temperature 38 °F -  
Max Temperature 60 °F 55 °F 68 °F (2012)
Min Temperature 17 °F 24 °F 10 °F (2007)
Degree Days  
Heating Degree Days 26    
Moisture  
Dew Point 10 °F    
Average Humidity 31    
Maximum Humidity 53    
Minimum Humidity 17    
Precipitation  
Precipitation 0.00 in - - ()
Sea Level Pressure  
Sea Level Pressure 30.26 in    
Wind  
Wind Speed 7 mph (West)    
Max Wind Speed 21 mph    
Max Gust Speed 30 mph    
Visibility 10 miles    
Events      
Averages and records for this station are not official NWS values.
T = Trace of Precipitation, MM = Missing Value Source: NWS Daily Summary

Daily Weather History Graph

Daily Weather History Graph

Search for Another Location

Airport:

Trip Planner

Search our weather history database for the weather conditions in past years. The results will help you decide how hot, cold, wet, or windy it might be!

Date:

Astronomy

Mar. 29, 2014 Rise Set
Actual Time 6:53 AM MDT 7:22 PM MDT
Civil Twilight 6:27 AM MDT 7:48 PM MDT
Nautical Twilight 5:56 AM MDT 8:18 PM MDT
Astronomical Twilight 5:25 AM MDT 8:49 PM MDT
Moon 6:01 AM MDT (3/29) 6:31 PM MDT (3/29)
Length of Visible Light 13h 21m
Length of Day
12h 29m
Waning Crescent, 1% of the Moon is Illuminated
Mar 29
Waning Crescent
Mar 30
New
Apr 7
First Quarter
Apr 15
Full
Apr 22
Last Quarter

Hourly Weather History & Observations

Time (MDT) Temp. Windchill Dew Point Humidity Pressure Visibility Wind Dir Wind Speed Gust Speed Precip Events Conditions
12:15 AM 26.6 °F 21.2 °F -0.4 °F 31% 30.30 in 10.0 mi ENE 4.6 mph - N/A   Clear
12:35 AM 26.6 °F 20.0 °F 3.2 °F 37% 30.31 in 10.0 mi NE 5.8 mph - N/A   Clear
12:55 AM 24.8 °F 16.1 °F 1.4 °F 36% 30.30 in 10.0 mi ENE 8.1 mph - N/A   Clear
1:15 AM 26.6 °F 18.2 °F 3.2 °F 37% 30.31 in 10.0 mi ENE 8.1 mph - N/A   Clear
1:35 AM 24.8 °F 16.9 °F 1.4 °F 36% 30.31 in 10.0 mi NE 6.9 mph - N/A   Clear
1:55 AM 24.8 °F 17.9 °F 5.0 °F 43% 30.31 in 10.0 mi NNE 5.8 mph - N/A   Clear
2:15 AM 24.8 °F 17.9 °F 5.0 °F 43% 30.31 in 10.0 mi NE 5.8 mph - N/A   Clear
2:35 AM 24.8 °F 17.9 °F 1.4 °F 36% 30.32 in 10.0 mi ESE 5.8 mph - N/A   Clear
2:55 AM 21.2 °F 12.6 °F 3.2 °F 46% 30.31 in 10.0 mi ESE 6.9 mph - N/A   Clear
3:15 AM 24.8 °F - 5.0 °F 43% 30.31 in 10.0 mi Calm Calm - N/A   Clear
3:35 AM 21.2 °F - 1.4 °F 42% 30.31 in 10.0 mi Calm Calm - N/A   Clear
3:55 AM 23.0 °F 17.0 °F 3.2 °F 43% 30.32 in 10.0 mi North 4.6 mph - N/A   Clear
4:15 AM 23.0 °F - 3.2 °F 43% 30.31 in 10.0 mi Calm Calm - N/A   Clear
4:35 AM 23.0 °F - 1.4 °F 39% 30.31 in 10.0 mi Calm Calm - N/A   Clear
4:55 AM 24.8 °F - 1.4 °F 36% 30.31 in 10.0 mi Calm Calm - N/A   Clear
5:15 AM 19.4 °F 14.3 °F 1.4 °F 46% 30.31 in 10.0 mi NNW 3.5 mph - N/A   Clear
5:35 AM 17.6 °F 10.7 °F 1.4 °F 49% 30.32 in 10.0 mi North 4.6 mph - N/A   Clear
5:55 AM 21.2 °F - 3.2 °F 46% 30.31 in 10.0 mi Calm Calm - N/A   Clear
6:15 AM 19.4 °F 11.5 °F 1.4 °F 46% 30.32 in 10.0 mi North 5.8 mph - N/A   Clear
6:35 AM 17.6 °F 8.2 °F 1.4 °F 49% 30.33 in 10.0 mi North 6.9 mph - N/A   Clear
6:55 AM 17.6 °F 8.2 °F 1.4 °F 49% 30.33 in 10.0 mi North 6.9 mph - N/A   Clear
7:15 AM 17.6 °F 10.7 °F 3.2 °F 53% 30.34 in 10.0 mi North 4.6 mph - N/A   Clear
7:35 AM 21.2 °F 14.9 °F 3.2 °F 46% 30.35 in 10.0 mi North 4.6 mph - N/A   Clear
7:55 AM 24.8 °F 19.1 °F 3.2 °F 40% 30.36 in 10.0 mi North 4.6 mph - N/A   Clear
8:15 AM 28.4 °F - 6.8 °F 40% 30.36 in 10.0 mi Calm Calm - N/A   Clear
8:35 AM 33.8 °F - 10.4 °F 38% 30.36 in 10.0 mi Calm Calm - N/A   Clear
8:55 AM 33.8 °F - 10.4 °F 38% 30.37 in 10.0 mi Calm Calm - N/A   Clear
9:15 AM 35.6 °F - 10.4 °F 35% 30.37 in 10.0 mi Calm Calm - N/A   Clear
9:35 AM 37.4 °F - 10.4 °F 33% 30.36 in 10.0 mi Calm Calm - N/A   Clear
9:55 AM 41.0 °F 37.1 °F 8.6 °F 26% 30.36 in 10.0 mi SW 5.8 mph - N/A   Clear
10:15 AM 41.0 °F - 10.4 °F 29% 30.35 in 10.0 mi Calm Calm - N/A   Clear
10:35 AM 42.8 °F 38.0 °F 10.4 °F 27% 30.35 in 10.0 mi SW 8.1 mph - N/A   Clear
10:55 AM 46.4 °F 41.9 °F 10.4 °F 23% 30.35 in 10.0 mi WSW 9.2 mph - N/A   Clear
11:15 AM 46.4 °F 45.2 °F 10.4 °F 23% 30.34 in 10.0 mi WSW 3.5 mph - N/A   Clear
11:35 AM 48.2 °F - 12.2 °F 24% 30.33 in 10.0 mi WSW 11.5 mph - N/A   Clear
11:55 AM 50.0 °F - 15.8 °F 26% 30.32 in 10.0 mi SW 10.4 mph 19.6 mph N/A   Clear
12:15 PM 51.8 °F - 15.8 °F 24% 30.31 in 10.0 mi SSW 11.5 mph 18.4 mph N/A   Clear
12:35 PM 51.8 °F - 15.8 °F 24% 30.30 in 10.0 mi SW 18.4 mph - N/A   Clear
12:55 PM 51.8 °F - 15.8 °F 24% 30.29 in 10.0 mi West 10.4 mph 17.3 mph N/A   Clear
1:15 PM 53.6 °F - 15.8 °F 22% 30.27 in 10.0 mi West 12.7 mph 21.9 mph N/A   Clear
1:35 PM 55.4 °F - 15.8 °F 21% 30.26 in 10.0 mi SW 13.8 mph 24.2 mph N/A   Clear
1:55 PM 55.4 °F - 15.8 °F 21% 30.25 in 10.0 mi WSW 11.5 mph 23.0 mph N/A   Clear
2:15 PM 55.4 °F - 14.0 °F 20% 30.24 in 10.0 mi West 17.3 mph 20.7 mph N/A   Clear
2:35 PM 57.2 °F - 14.0 °F 18% 30.22 in 10.0 mi WSW 18.4 mph 24.2 mph N/A   Clear
2:55 PM 57.2 °F - 15.8 °F 20% 30.21 in 10.0 mi WSW 15.0 mph 26.5 mph N/A   Clear
3:15 PM 57.2 °F - 15.8 °F 20% 30.19 in 10.0 mi WSW 15.0 mph 20.7 mph N/A   Clear
3:35 PM 59.0 °F - 17.6 °F 20% 30.18 in 10.0 mi SW 9.2 mph 20.7 mph N/A   Clear
3:55 PM 59.0 °F - 17.6 °F 20% 30.17 in 10.0 mi West 15.0 mph 19.6 mph N/A   Clear
4:15 PM 60.8 °F - 17.6 °F 19% 30.16 in 10.0 mi WSW 17.3 mph 24.2 mph N/A   Clear
4:35 PM 60.8 °F - 17.6 °F 19% 30.15 in 10.0 mi WSW 18.4 mph 26.5 mph N/A   Clear
4:55 PM 60.8 °F - 15.8 °F 17% 30.14 in 10.0 mi WSW 17.3 mph 20.7 mph N/A   Clear
5:15 PM 60.8 °F - 15.8 °F 17% 30.15 in 10.0 mi West 19.6 mph 27.6 mph N/A   Clear
5:35 PM 60.8 °F - 15.8 °F 17% 30.15 in 10.0 mi WSW 20.7 mph - N/A   Clear
5:55 PM 60.8 °F - 15.8 °F 17% 30.15 in 10.0 mi West 13.8 mph - N/A   Clear
6:15 PM 59.0 °F - 15.8 °F 19% 30.16 in 10.0 mi SW 16.1 mph 29.9 mph N/A   Clear
6:35 PM 57.2 °F - 14.0 °F 18% 30.15 in 10.0 mi SW 16.1 mph - N/A   Clear
6:55 PM 55.4 °F - 14.0 °F 20% 30.16 in 10.0 mi SW 15.0 mph - N/A   Clear
7:15 PM 53.6 °F - 14.0 °F 21% 30.16 in 10.0 mi SW 10.4 mph - N/A   Clear
7:35 PM 51.8 °F - 12.2 °F 21% 30.16 in 10.0 mi SW 8.1 mph - N/A   Clear
7:55 PM 48.2 °F - 12.2 °F 24% 30.16 in 10.0 mi WSW 5.8 mph - N/A   Clear
8:15 PM 48.2 °F - 14.0 °F 25% 30.16 in 10.0 mi WSW 8.1 mph - N/A   Clear
8:35 PM 46.4 °F 42.4 °F 12.2 °F 25% 30.17 in 10.0 mi WSW 8.1 mph - N/A   Clear
8:55 PM 44.6 °F 39.2 °F 12.2 °F 27% 30.18 in 10.0 mi NW 10.4 mph - N/A   Clear
9:15 PM 42.8 °F 38.6 °F 12.2 °F 29% 30.19 in 10.0 mi West 6.9 mph - N/A   Clear
9:35 PM 44.6 °F 40.7 °F 12.2 °F 27% 30.19 in 10.0 mi WSW 6.9 mph - N/A   Clear
9:55 PM 44.6 °F 39.7 °F 12.2 °F 27% 30.19 in 10.0 mi SW 9.2 mph - N/A   Clear
10:15 PM 44.6 °F 39.7 °F 12.2 °F 27% 30.19 in 10.0 mi SW 9.2 mph - N/A   Clear
10:35 PM 39.2 °F - 10.4 °F 31% 30.19 in 10.0 mi Calm Calm - N/A   Clear
10:55 PM 39.2 °F 37.0 °F 12.2 °F 33% 30.19 in 10.0 mi ENE 3.5 mph - N/A   Clear
11:15 PM 37.4 °F - 10.4 °F 33% 30.19 in 10.0 mi Calm Calm - N/A   Clear
11:35 PM 33.8 °F 28.6 °F 8.6 °F 35% 30.19 in 10.0 mi ENE 5.8 mph - N/A   Clear
11:55 PM 35.6 °F 29.9 °F 12.2 °F 38% 30.18 in 10.0 mi ENE 6.9 mph - N/A   Clear